Weather in Chegarachi

Uzbekistan     37°23′34″N   66°36′05″E
temp.,
°C
wind,
m/s
gust,
m/s
humid.,
%
clouds,
%
prec.,
mm/h
press.,
hPa
HPBL,
m
23 october, sat
sat2323:00+9e582552 0.0 1032127
02:00+9ene57320 0.0 1030103
05:00+9ne46370 0.0 102964
08:00+10ene35310 0.0 1028140
11:00+15e56220 0.0 10271079
14:00+17e45170 0.0 10241260
17:00+16e12170 0.0 102282
20:00+11ne11260 0.0 102310
24 october, sun
sun2423:00+11ene22230 0.0 102212
02:00+11ne44220 0.0 102026
05:00+11ene56220 0.0 101948
08:00+13ene58190 0.0 1019122
11:00+20e89130 0.0 1017886
14:00+22e89110 0.0 10141083
17:00+20e23140 0.0 101436
20:00+14ne11200 0.0 101411
25 october, mon
mon2523:00+14ne22190 0.0 101414
02:00+12nne11190 0.0 101411
05:00+11wnw01220 0.0 101511
08:00+13wsw01210 0.0 101612
11:00+19s21155 0.0 1017433
14:00+21ssw21139 0.0 1015802
17:00+20w22145 0.0 101519
20:00+16nw331899 0.0 101713
26 october, tue
tue2623:00+16nw3317100 0.0 101716
02:00+16nw2217100 0.0 101711
05:00+15nw3318100 0.0 101820
08:00+16wnw221754 0.0 101930
11:00+21w451325 0.0 1020838
14:00+23wnw77120 0.0 10191368
17:00+21wnw68140 0.0 1019267
20:00+16nw22195 0.0 102120
27 october, wed
wed2723:00+14wnw1122100 0.0 102211
02:00+14nne0122100 0.0 102210
05:00+12ese1124100 0.0 102311
08:00+14e112263 0.0 102412
11:00+19ese1315100 0.0 1024810
14:00+21w1215100 0.0 10221148
17:00+19w3317100 0.0 102225
20:00+16nw2226100 0.0 102211